Regional Weather Roundup
Issued by NWS State College, PA

Home | Current Version | Previous Version | Graphics & Text | Print | Product List | Glossary On
Versions: 1 2 3 4 5 6 7 8 9 10 11 12 13 14 15 16 17 18 19 20 21 22 23 24 25 26 27 28 29 30 31 32 33 34 35 36 37 38 39 40 41 42 43 44 45 46 47 48 49 50
000
ASUS41 KCTP 050510
RWRCTP

REGIONAL WEATHER ROUNDUP
NATIONAL WEATHER SERVICE STATE COLLEGE PA
100 AM EDT TUE MAY 05 2015

Note: "fair" indicates few or no clouds below 12,000 feet with no
significant weather and/or obstructions to visibility.

* = STATION THAT DOES NOT REPORT PRECIPITATION /E.G. RAIN...SNOW...ETC/
    THUNDER OR FOG.

PAZ002>004-007>009-013>016-020>023-029>032-050600-
WESTERN PENNSYLVANIA

CITY           SKY/WX    TMP DP  RH WIND       PRES   REMARKS
ERIE           MOCLDY    56  53  90 CALM      30.20S
MEADVILLE      MOCLDY    60  57  89 S3        30.22S FOG
FRANKLIN*      MOCLDY    57  52  82 SW5       30.25R
NEW CASTLE     FOG       57  57 100 CALM      30.23S VSB 1/2
BEAVER COUNTY  NOT AVBL
BUTLER*        MOCLDY    61  57  88 CALM      30.25S
PITTSBURGH INT CLOUDY    63  60  90 S3        30.23R
PITTSBURGH     CLOUDY    64  56  75 SE3       30.23R
INDIANA*       CLOUDY    64  59  82 CALM      30.27S
LATROBE        CLOUDY    63  59  88 CALM      30.26R
WASHINGTON CO* CLOUDY    61  57  88 CALM      30.25F
$$

PAZ004>006-010>012-017>019-024>028-033>037-041-042-045-046-049>053-050600-
CENTRAL PENNSYLVANIA

CITY           SKY/WX    TMP DP  RH WIND       PRES   REMARKS
BRADFORD       CLOUDY    58  55  90 CALM      30.23R
DUBOIS         CLOUDY    62  56  80 W6        30.23R
CLEARFIELD     CLOUDY    65  55  70 CALM      30.23R
JOHNSTOWN      CLOUDY    64  52  64 W6        30.25S
ALTOONA        CLOUDY    67  52  58 W3        30.23R
STATE COLLEGE  CLOUDY    69  54  58 NW6       30.21R
WILLIAMSPORT   CLOUDY    69  48  47 W10       30.15R
SELINSGROVE    MOCLDY    64  51  62 NW6       30.15R
FT INDIANTOWN  PTCLDY    59  50  72 CALM      30.17S
CAPITAL CITY   PTCLDY    63  51  65 CALM      30.16S
HARRISBURG     MOCLDY    65  51  60 NE3       30.16R
YORK           CLEAR     70  50  49 VRB6      30.17R
$$

PAZ038>040-043-044-047-048-054-055-060>062-067>071-050600-
EASTERN PENNSYLVANIA

CITY           SKY/WX    TMP DP  RH WIND       PRES   REMARKS
SCRANTON       MOCLDY    70  46  42 S3        30.16R
MOUNT POCONO   CLEAR     64  45  49 W6        30.19S
ALLENTOWN      CLEAR     63  49  60 CALM      30.17S
QUAKERTOWN*    CLEAR     66  50  55 SW5       30.19S
READING        CLEAR     67  50  54 SW3       30.16S
LANCASTER      CLEAR     66  50  56 S5        30.17S
COATESVILLE    CLEAR     64  52  63 SW3       30.20S
POTTSTOWN      CLEAR     68  49  50 SW7       30.19S
BLUE BELL      CLEAR     68  50  52 S6        30.18S
DOYLESTOWN     CLEAR     66  48  52 S6        30.17S
WILLOW GROVE   NOT AVBL
NORTH PHILA    CLEAR     70  46  42 S8        30.20S
PHILADELPHIA   PTCLDY    67  49  52 S8        30.20S
$$


USA.gov is the U.S. government's official web portal to all federal, state and local government web resources and services.